Wahoo, NE

2:46 PM CST on February 06, 2016 (GMT -0600)
Wahoo Municipal

Weather History for KAHQ - January, 2014

Change the Weather History Date:

Sunday, January 19, 2014

  Actual Average Record
Temperature  
Mean Temperature 40 °F -  
Max Temperature 66 °F 34 °F 66 °F (2014)
Min Temperature 15 °F 12 °F -18 °F (1970)
Degree Days  
Heating Degree Days 24    
Moisture  
Dew Point 16 °F    
Average Humidity 43    
Maximum Humidity 86    
Minimum Humidity 11    
Precipitation  
Precipitation 0.00 in - - ()
Sea Level Pressure  
Sea Level Pressure 29.81 in    
Wind  
Wind Speed 11 mph (West)    
Max Wind Speed 28 mph    
Max Gust Speed 32 mph    
Visibility 10 miles    
Events      
Averages and records for this station are not official NWS values.
T = Trace of Precipitation, MM = Missing Value Source: NWS Daily Summary

Daily Weather History Graph

Daily Weather History Graph

Search for Another Location

Airport or City:

Trip Planner

Search our weather history database for the weather conditions in past years. The results will help you decide how hot, cold, wet, or windy it might be!

Date:

Astronomy

Jan. 19, 2014 Rise Set
Actual Time 7:47 AM CST 5:26 PM CST
Civil Twilight 7:17 AM CST 5:57 PM CST
Nautical Twilight 6:43 AM CST 6:30 PM CST
Astronomical Twilight 6:10 AM CST 7:03 PM CST
Moon 9:08 PM CST (1/19) 9:15 AM CST (1/19)
Length of Visible Light 10h 39m
Length of Day
9h 39m
Waning Gibbous, 89% of the Moon is Illuminated
Jan 19
Waning Gibbous
Jan 23
Last Quarter
Jan 30
New
Feb 6
First Quarter
Feb 14
Full

Hourly Weather History & Observations

Time (CST) Temp. Windchill Dew Point Humidity Pressure Visibility Wind Dir Wind Speed Gust Speed Precip Events Conditions
12:15 AM 22.6 °F 14.3 °F 18.0 °F 82% 30.00 in 10.0 mi SW 6.9 mph - N/A   Clear
12:35 AM 22.3 °F 12.2 °F 17.1 °F 80% 29.98 in 10.0 mi SW 9.2 mph - N/A   Clear
12:55 AM 23.5 °F 16.4 °F 18.1 °F 80% 29.98 in 10.0 mi WSW 5.8 mph - N/A   Clear
1:15 AM 19.6 °F 11.7 °F 14.7 °F 81% 29.98 in 10.0 mi SSW 5.8 mph - N/A   Clear
1:35 AM 17.6 °F 9.3 °F 13.8 °F 85% 29.97 in 10.0 mi South 5.8 mph - N/A   Clear
1:55 AM 19.6 °F 13.0 °F 15.6 °F 85% 29.97 in 10.0 mi SSE 4.6 mph - N/A   Clear
2:15 AM 15.6 °F 5.9 °F 12.0 °F 86% 29.97 in 10.0 mi South 6.9 mph - N/A   Clear
2:35 AM 16.7 °F 7.2 °F 12.9 °F 85% 29.95 in 10.0 mi South 6.9 mph - N/A   Clear
2:55 AM 17.4 °F 9.1 °F 13.5 °F 84% 29.95 in 10.0 mi South 5.8 mph - N/A   Clear
3:15 AM 20.8 °F 9.7 °F 17.2 °F 86% 29.93 in 10.0 mi SW 10.4 mph - N/A   Clear
3:35 AM 24.8 °F 10.7 °F 19.0 °F 79% 29.90 in 10.0 mi SW 19.6 mph - N/A   Clear
3:55 AM 26.2 °F 14.7 °F 19.4 °F 75% 29.89 in 10.0 mi SW 13.8 mph - N/A   Clear
4:15 AM 26.4 °F 16.0 °F 19.4 °F 75% 29.89 in 10.0 mi SW 11.5 mph - N/A   Clear
4:35 AM 28.4 °F 16.6 °F 19.8 °F 70% 29.88 in 10.0 mi SW 16.1 mph 19.6 mph N/A   Clear
4:55 AM 29.1 °F 20.6 °F 19.4 °F 67% 29.87 in 10.0 mi WSW 9.2 mph - N/A   Clear
5:15 AM 30.7 °F 20.4 °F 19.4 °F 63% 29.86 in 10.0 mi WSW 13.8 mph 17.3 mph N/A   Clear
5:35 AM 31.5 °F 22.3 °F 19.0 °F 60% 29.85 in 10.0 mi WSW 11.5 mph - N/A   Clear
5:55 AM 30.7 °F 22.6 °F 18.5 °F 60% 29.83 in 10.0 mi SW 9.2 mph - N/A   Clear
6:15 AM 31.6 °F 21.2 °F 18.3 °F 58% 29.83 in 10.0 mi WSW 15.0 mph 23.0 mph N/A   Clear
6:35 AM 32.4 °F 21.7 °F 18.0 °F 55% 29.82 in 10.0 mi WSW 16.1 mph 20.7 mph N/A   Clear
6:55 AM 32.9 °F 22.4 °F 17.6 °F 53% 29.83 in 10.0 mi WSW 16.1 mph - N/A   Clear
7:15 AM 32.7 °F 22.1 °F 17.6 °F 54% 29.82 in 10.0 mi WSW 16.1 mph - N/A   Clear
7:35 AM 32.2 °F 22.3 °F 17.4 °F 55% 29.82 in 10.0 mi WSW 13.8 mph 20.7 mph N/A   Clear
7:55 AM 32.0 °F 26.4 °F 17.4 °F 55% 29.82 in 10.0 mi WSW 5.8 mph - N/A   Clear
8:15 AM 32.5 °F - 17.4 °F 54% 29.80 in 10.0 mi Calm Calm - N/A   Clear
8:35 AM 33.8 °F - 17.6 °F 52% 29.80 in 10.0 mi Calm Calm - N/A   Clear
8:55 AM 34.9 °F 29.0 °F 18.1 °F 51% 29.80 in 10.0 mi WSW 6.9 mph - N/A   Clear
9:15 AM 36.7 °F 28.9 °F 18.3 °F 47% 29.80 in 10.0 mi WSW 11.5 mph - N/A   Clear
9:35 AM 38.7 °F 32.9 °F 19.0 °F 45% 29.80 in 10.0 mi West 8.1 mph - N/A   Clear
9:55 AM 41.2 °F 37.3 °F 19.2 °F 41% 29.80 in 10.0 mi West 5.8 mph - N/A   Clear
10:15 AM 43.2 °F 39.0 °F 19.6 °F 39% 29.80 in 10.0 mi West 6.9 mph - N/A   Clear
10:35 AM 45.0 °F 39.3 °F 19.9 °F 37% 29.79 in 10.0 mi West 11.5 mph 16.1 mph N/A   Clear
10:55 AM 49.1 °F - 19.9 °F 32% 29.79 in 10.0 mi West 11.5 mph - N/A   Clear
11:15 AM 50.9 °F - 19.9 °F 30% 29.78 in 10.0 mi WSW 9.2 mph - N/A   Clear
11:35 AM 54.3 °F - 19.9 °F 26% 29.77 in 10.0 mi WSW 12.7 mph - N/A   Clear
11:55 AM 57.2 °F - 19.4 °F 23% 29.75 in 10.0 mi West 15.0 mph 20.7 mph N/A   Clear
12:15 PM 59.2 °F - 18.3 °F 20% 29.74 in 10.0 mi West 19.6 mph 24.2 mph N/A   Clear
12:35 PM 60.3 °F - 17.6 °F 19% 29.73 in 10.0 mi WSW 19.6 mph 25.3 mph N/A   Clear
12:55 PM 61.3 °F - 16.9 °F 18% 29.72 in 10.0 mi West 17.3 mph 24.2 mph N/A   Clear
1:15 PM 62.8 °F - 16.5 °F 17% 29.71 in 10.0 mi West 12.7 mph 17.3 mph N/A   Clear
1:35 PM 64.4 °F - 15.8 °F 15% 29.70 in 10.0 mi West 13.8 mph 20.7 mph N/A   Clear
1:55 PM 65.3 °F - 15.3 °F 14% 29.69 in 10.0 mi West 27.6 mph 32.2 mph N/A   Clear
2:15 PM 65.3 °F - 15.3 °F 14% 29.68 in 10.0 mi West 23.0 mph 28.8 mph N/A   Clear
2:35 PM 65.3 °F - 15.3 °F 14% 29.67 in 10.0 mi West 20.7 mph 26.5 mph N/A   Clear
2:55 PM 65.7 °F - 14.5 °F 14% 29.68 in 10.0 mi West 20.7 mph - N/A   Clear
3:15 PM 66.0 °F - 14.7 °F 14% 29.68 in 10.0 mi West 16.1 mph - N/A   Clear
3:35 PM 66.4 °F - 13.8 °F 13% 29.68 in 10.0 mi West 20.7 mph 29.9 mph N/A   Clear
3:55 PM 65.7 °F - 13.1 °F 13% 29.68 in 10.0 mi West 18.4 mph 25.3 mph N/A   Clear
4:15 PM 64.8 °F - 10.6 °F 12% 29.69 in 10.0 mi WNW 18.4 mph - N/A   Clear
4:35 PM 64.4 °F - 8.2 °F 11% 29.70 in 10.0 mi WNW 18.4 mph 25.3 mph N/A   Clear
4:55 PM 63.0 °F - 7.7 °F 11% 29.71 in 10.0 mi WNW 19.6 mph 26.5 mph N/A   Clear
5:15 PM 61.5 °F - 6.8 °F 11% 29.72 in 10.0 mi NW 18.4 mph - N/A   Clear
5:35 PM 60.6 °F - 7.9 °F 12% 29.73 in 10.0 mi NW 24.2 mph 28.8 mph N/A   Clear
5:55 PM 58.1 °F - 11.1 °F 16% 29.74 in 10.0 mi NW 18.4 mph 24.2 mph N/A   Clear
6:15 PM 56.7 °F - 12.9 °F 18% 29.76 in 10.0 mi NW 16.1 mph 23.0 mph N/A   Clear
6:55 PM 50.2 °F - 13.5 °F 23% 29.78 in 10.0 mi NNW 6.9 mph - N/A   Clear
7:15 PM 46.0 °F 41.9 °F 13.3 °F 27% 29.80 in 10.0 mi NW 8.1 mph - N/A   Clear
7:35 PM 41.5 °F 36.4 °F 13.6 °F 32% 29.81 in 10.0 mi WNW 8.1 mph - N/A   Clear
7:55 PM 43.5 °F 38.9 °F 14.0 °F 30% 29.81 in 10.0 mi WNW 8.1 mph - N/A   Clear
8:15 PM 41.9 °F 36.3 °F 14.5 °F 33% 29.82 in 10.0 mi NW 9.2 mph - N/A   Clear
8:35 PM 42.3 °F 38.6 °F 14.9 °F 33% 29.82 in 10.0 mi NW 5.8 mph - N/A   Clear
8:55 PM 39.2 °F 34.2 °F 14.4 °F 36% 29.83 in 10.0 mi NW 6.9 mph - N/A   Clear
9:15 PM 39.0 °F 34.0 °F 14.5 °F 37% 29.83 in 10.0 mi NW 6.9 mph - N/A   Clear
9:35 PM 33.8 °F 27.0 °F 14.0 °F 44% 29.84 in 10.0 mi North 8.1 mph - N/A   Clear
9:55 PM 35.8 °F 30.1 °F 14.5 °F 42% 29.85 in 10.0 mi NNW 6.9 mph - N/A   Clear
10:15 PM 36.9 °F 31.4 °F 15.1 °F 41% 29.85 in 10.0 mi NW 6.9 mph - N/A   Clear
10:35 PM 30.0 °F 24.1 °F 13.3 °F 50% 29.85 in 10.0 mi NNW 5.8 mph - N/A   Clear
10:55 PM 32.5 °F 24.8 °F 16.0 °F 51% 29.85 in 10.0 mi NW 9.2 mph - N/A   Clear
11:15 PM 36.3 °F 29.5 °F 16.5 °F 45% 29.85 in 10.0 mi NW 9.2 mph - N/A   Clear
11:35 PM 35.4 °F 30.5 °F 14.7 °F 43% 29.85 in 10.0 mi NNW 5.8 mph - N/A   Clear
11:55 PM 30.7 °F 22.0 °F 14.2 °F 50% 29.85 in 10.0 mi NNW 10.4 mph - N/A   Clear